Weather History for Point Mugu, CA

Change the Weather History Date:

Monday, August 26, 2013

  Actual Average Record
Temperature  
Mean Temperature 65 °F -  
Max Temperature 73 °F 70 °F 82 °F (2005)
Min Temperature 57 °F 56 °F 51 °F (2002)
Growing Degree Days 15 (Base 50)    
Moisture  
Dew Point 60 °F    
Average Humidity 80    
Maximum Humidity 96    
Minimum Humidity 67    
Precipitation  
Precipitation 0.00 in - - ()
Sea Level Pressure  
Sea Level Pressure 29.88 in    
Wind  
Wind Speed 4 mph (WNW)    
Max Wind Speed 13 mph    
Max Gust Speed -    
Visibility 6 miles    
Events Fog    
Averages and records for this station are not official NWS values.
T = Trace of Precipitation, MM = Missing Value Source: NWS Daily Summary

Daily Weather History Graph

Daily Weather History Graph

Search for Another Location

Airport:

Trip Planner

Search our weather history database for the weather conditions in past years. The results will help you decide how hot, cold, wet, or windy it might be!

Date:

Astronomy

Aug. 26, 2013 Rise Set
Actual Time 6:26 AM PDT 7:29 PM PDT
Civil Twilight 6:00 AM PDT 7:55 PM PDT
Nautical Twilight 5:29 AM PDT 8:26 PM PDT
Astronomical Twilight 4:57 AM PDT 8:57 PM PDT
Moon 11:02 PM PDT (8/26) 12:13 PM PDT (8/26)
Length of Visible Light 13h 55m
Length of Day
13h 03m
Waning Gibbous, 65% of the Moon is Illuminated
Aug 26
Waning Gibbous
Aug 28
Last Quarter
Sep 5
New
Sep 12
First Quarter
Sep 19
Full

Hourly Weather History & Observations

Time (PDT) Temp. Dew Point Humidity Pressure Visibility Wind Dir Wind Speed Gust Speed Precip Events Conditions
12:54 AM - - N/A% - - Calm Calm - N/A   Clear
1:54 AM - - N/A% - - North 5.8 mph - 0.00 in   Clear
2:54 AM - - N/A% - - NNW 3.5 mph - 0.00 in   Unknown
3:54 AM - - N/A% - - Calm Calm - 0.00 in   Clear
4:54 AM - - N/A% - - Calm Calm - N/A   Scattered Clouds
5:02 AM - - N/A% - - North 3.5 mph - N/A   Mostly Cloudy
5:54 AM 59.7 °F 56.5 °F 89% 29.91 in 0.2 mi North 4.6 mph - N/A Fog Fog
6:54 AM 57.7 °F 56.7 °F 96% 29.91 in 0.2 mi Calm Calm - N/A Fog Fog
7:02 AM 59.0 °F 57.2 °F 94% 29.91 in 7.0 mi Calm Calm - N/A   Partly Cloudy
7:54 AM 59.7 °F 57.0 °F 91% 29.92 in 7.0 mi North 3.5 mph - N/A   Scattered Clouds
8:54 AM 64.2 °F 59.2 °F 84% 29.92 in 7.0 mi Variable 4.6 mph - N/A   Partly Cloudy
9:54 AM 68.2 °F 57.0 °F 67% 29.91 in 7.0 mi West 3.5 mph - N/A   Clear
10:54 AM 68.9 °F 60.1 °F 73% 29.91 in 7.0 mi West 9.2 mph - N/A   Partly Cloudy
11:54 AM 70.3 °F 62.1 °F 75% 29.91 in 7.0 mi West 11.5 mph - N/A   Partly Cloudy
12:54 PM 71.4 °F 61.0 °F 70% 29.89 in 7.0 mi West 12.7 mph - N/A   Partly Cloudy
1:54 PM 73.4 °F 62.6 °F 69% 29.88 in 7.0 mi West 11.5 mph - N/A   Partly Cloudy
2:54 PM 72.0 °F 61.7 °F 70% 29.86 in 7.0 mi West 10.4 mph - N/A   Scattered Clouds
3:54 PM 71.8 °F 62.8 °F 73% 29.86 in 7.0 mi West 10.4 mph - N/A   Scattered Clouds
4:54 PM 70.5 °F 61.9 °F 74% 29.84 in 7.0 mi West 9.2 mph - N/A   Partly Cloudy
5:54 PM 71.1 °F 61.9 °F 73% 29.82 in 7.0 mi WNW 6.9 mph - N/A   Partly Cloudy
6:54 PM 68.2 °F 60.3 °F 76% 29.83 in 7.0 mi WNW 5.8 mph - N/A   Partly Cloudy
7:54 PM 65.7 °F 60.3 °F 83% 29.84 in 7.0 mi NW 4.6 mph - N/A   Partly Cloudy
8:54 PM 64.8 °F 60.3 °F 85% 29.86 in 7.0 mi NW 5.8 mph - N/A   Partly Cloudy
9:54 PM 64.8 °F 59.0 °F 82% 29.86 in 7.0 mi NW 5.8 mph - N/A   Partly Cloudy
10:54 PM 63.9 °F 60.3 °F 88% 29.86 in 7.0 mi NW 6.9 mph - N/A   Clear
11:54 PM - - N/A% - - NW 5.8 mph - 0.00 in   Unknown